Weather History for Dunkirk, NY

Change the Weather History Date:

Monday, February 18, 2013

  Actual Average Record
Temperature  
Mean Temperature 30 °F -  
Max Temperature 45 °F 37 °F 60 °F (1949)
Min Temperature 17 °F 19 °F -17 °F (1979)
Degree Days  
Heating Degree Days 35    
Moisture  
Dew Point 11 °F    
Average Humidity 52    
Maximum Humidity 68    
Minimum Humidity 33    
Precipitation  
Precipitation 0.00 in - - ()
Sea Level Pressure  
Sea Level Pressure 30.15 in    
Wind  
Wind Speed 9 mph (SSW)    
Max Wind Speed 23 mph    
Max Gust Speed 34 mph    
Visibility 10 miles    
Events      
Averages and records for this station are not official NWS values.
T = Trace of Precipitation, MM = Missing Value Source: NWS Daily Summary

Daily Weather History Graph

Daily Weather History Graph

Search for Another Location

Airport:

Trip Planner

Search our weather history database for the weather conditions in past years. The results will help you decide how hot, cold, wet, or windy it might be!

Date:

Astronomy

Feb. 18, 2013 Rise Set
Actual Time 7:09 AM EST 5:53 PM EST
Civil Twilight 6:40 AM EST 6:22 PM EST
Nautical Twilight 6:07 AM EST 6:54 PM EST
Astronomical Twilight 5:35 AM EST 7:27 PM EST
Moon 11:34 AM EST (2/18) 1:50 AM EST (2/18)
Length of Visible Light 11h 41m
Length of Day
10h 44m
First Quarter, 58% of the Moon is Illuminated
Feb 18
First Quarter
Feb 25
Full
Mar 4
Last Quarter
Mar 11
New
Mar 19
First Quarter

Hourly Weather History & Observations

Time (EST) Temp. Windchill Dew Point Humidity Pressure Visibility Wind Dir Wind Speed Gust Speed Precip Events Conditions
12:10 AM 17.6 °F 5.0 °F 6.8 °F 63% 30.22 in 10.0 mi NW 11.5 mph - N/A   Overcast
12:53 AM 17.1 °F 8.7 °F 8.1 °F 68% 30.26 in 10.0 mi NW 5.8 mph - N/A   Mostly Cloudy
1:51 AM 17.6 °F 8.2 °F 8.6 °F 68% 30.22 in 10.0 mi NW 6.9 mph - N/A   Mostly Cloudy
1:53 AM 18.0 °F 7.7 °F 8.1 °F 65% 30.26 in 10.0 mi NW 8.1 mph - N/A   Mostly Cloudy
2:26 AM 19.4 °F 9.5 °F 6.8 °F 58% 30.22 in 10.0 mi WNW 8.1 mph - N/A   Overcast
2:53 AM 19.0 °F 12.3 °F 8.1 °F 62% 30.27 in 10.0 mi WNW 4.6 mph - N/A   Overcast
3:53 AM 19.9 °F 11.1 °F 8.1 °F 60% 30.27 in 10.0 mi West 6.9 mph - N/A   Overcast
4:06 AM 19.4 °F 11.5 °F 8.6 °F 63% 30.24 in 10.0 mi WNW 5.8 mph - N/A   Overcast
4:35 AM 19.4 °F 11.5 °F 8.6 °F 63% 30.24 in 10.0 mi WNW 5.8 mph - N/A   Overcast
4:53 AM 19.9 °F 13.4 °F 8.1 °F 60% 30.28 in 10.0 mi NW 4.6 mph - N/A   Overcast
5:05 AM 19.4 °F 14.3 °F 8.6 °F 63% 30.24 in 10.0 mi WSW 3.5 mph - N/A   Overcast
5:53 AM 19.0 °F 11.1 °F 8.1 °F 62% 30.29 in 10.0 mi WSW 5.8 mph - N/A   Overcast
7:10 AM 17.6 °F 9.3 °F 8.6 °F 68% 30.25 in 10.0 mi South 5.8 mph - N/A   Mostly Cloudy
7:53 AM 17.1 °F 6.6 °F 8.1 °F 68% 30.29 in 10.0 mi South 8.1 mph - N/A   Mostly Cloudy
8:06 AM 17.6 °F 6.4 °F 8.6 °F 68% 30.25 in 10.0 mi South 9.2 mph - N/A   Scattered Clouds
8:53 AM 19.9 °F 7.9 °F 8.1 °F 60% 30.29 in 10.0 mi SSW 11.5 mph - N/A   Clear
9:53 AM 23.0 °F 11.7 °F 7.0 °F 50% 30.27 in 10.0 mi South 11.5 mph - N/A   Clear
10:53 AM 26.1 °F 16.8 °F 7.0 °F 44% 30.25 in 10.0 mi South 9.2 mph - N/A   Clear
11:53 AM 28.9 °F 22.8 °F 8.1 °F 41% 30.21 in 10.0 mi South 5.8 mph - N/A   Clear
12:53 PM 32.0 °F 23.6 °F 9.0 °F 38% 30.17 in 10.0 mi SSE 10.4 mph - N/A   Mostly Cloudy
1:53 PM 34.0 °F 26.0 °F 9.0 °F 35% 30.12 in 10.0 mi SSE 10.4 mph - N/A   Mostly Cloudy
2:53 PM 37.0 °F 31.0 °F 10.0 °F 33% 30.08 in 10.0 mi SSE 8.1 mph - N/A   Partly Cloudy
3:53 PM 37.9 °F 32.1 °F 12.0 °F 35% 30.06 in 10.0 mi SSE 8.1 mph - N/A   Clear
4:53 PM 37.9 °F 32.7 °F 12.9 °F 36% 30.02 in 10.0 mi SSE 6.9 mph - N/A   Clear
5:53 PM 37.0 °F 28.1 °F 12.9 °F 37% 30.01 in 10.0 mi South 15.0 mph 19.6 mph N/A   Clear
6:53 PM 37.9 °F 29.2 °F 15.1 °F 39% 29.98 in 10.0 mi South 15.0 mph 25.3 mph N/A   Clear
7:53 PM 37.9 °F 28.5 °F 16.0 °F 41% 29.96 in 10.0 mi South 17.3 mph 24.2 mph N/A   Clear
8:53 PM 39.9 °F 31.4 °F 17.1 °F 40% 29.91 in 10.0 mi South 16.1 mph 24.2 mph N/A   Clear
9:53 PM 41.0 °F 33.1 °F 19.0 °F 41% 29.88 in 10.0 mi SSW 15.0 mph 23.0 mph N/A   Mostly Cloudy
10:53 PM 43.0 °F 34.0 °F 21.9 °F 43% 29.84 in 10.0 mi South 21.9 mph 34.5 mph N/A   Mostly Cloudy
11:53 PM 45.0 °F 36.4 °F 25.0 °F 46% 29.82 in 10.0 mi South 23.0 mph 32.2 mph N/A   Overcast